Howell, MI

3:25 AM EDT on April 30, 2017 (GMT -0400)
Livingston County

Weather History for KOZW - November, 2011

Change the Weather History Date:

Friday, November 18, 2011

  Actual Average Record
Temperature  
Mean Temperature 36 °F -  
Max Temperature 46 °F 46 °F 70 °F (2016)
Min Temperature 26 °F 32 °F 10 °F (2014)
Degree Days  
Heating Degree Days 29    
Moisture  
Dew Point 17 °F    
Average Humidity 52    
Maximum Humidity 80    
Minimum Humidity 25    
Precipitation  
Precipitation 0.00 in - - ()
Sea Level Pressure  
Sea Level Pressure 30.15 in    
Wind  
Wind Speed 8 mph (SSW)    
Max Wind Speed 22 mph    
Max Gust Speed 31 mph    
Visibility 10 miles    
Events      
Averages and records for this station are not official NWS values.
T = Trace of Precipitation, MM = Missing Value Source: NWS Daily Summary

Daily Weather History Graph

Daily Weather History Graph

Search for Another Location

Airport or City:

Trip Planner

Search our weather history database for the weather conditions in past years. The results will help you decide how hot, cold, wet, or windy it might be!

Date:

Astronomy

Nov. 18, 2011 Rise Set
Actual Time 7:30 AM EST 5:10 PM EST
Civil Twilight 7:00 AM EST 5:41 PM EST
Nautical Twilight 6:25 AM EST 6:15 PM EST
Astronomical Twilight 5:52 AM EST 6:49 PM EST
Moon No Moon Rise 1:05 PM EST (11/18)
Length of Visible Light 10h 41m
Length of Day
9h 40m
Waning Gibbous, 49% of the Moon is Illuminated
Nov 18
Waning Gibbous
Nov 25
New
Dec 2
First Quarter
Dec 10
Full
Dec 17
Last Quarter

Hourly Weather History & Observations

Time (EST) Temp. Windchill Dew Point Humidity Pressure Visibility Wind Dir Wind Speed Gust Speed Precip Events Conditions
12:15 AM 26.6 °F 22.6 °F 19.4 °F 74% 30.20 in 10.0 mi SW 3.5 mph - N/A   Clear
12:34 AM 26.6 °F - 21.2 °F 80% 30.20 in 10.0 mi Calm Calm - N/A   Clear
12:55 AM 26.6 °F 22.6 °F 19.4 °F 74% 30.20 in 10.0 mi SW 3.5 mph - N/A   Clear
1:14 AM 26.6 °F 22.6 °F 19.4 °F 74% 30.20 in 10.0 mi SW 3.5 mph - N/A   Clear
1:35 AM 26.6 °F 22.6 °F 19.4 °F 74% 30.21 in 10.0 mi SW 3.5 mph - N/A   Clear
2:14 AM 26.6 °F - 19.4 °F 74% 30.21 in 10.0 mi Calm Calm - N/A   Clear
2:35 AM 26.6 °F 22.6 °F 19.4 °F 74% 30.22 in 10.0 mi SSW 3.5 mph - N/A   Clear
2:55 AM 26.6 °F 22.6 °F 19.4 °F 74% 30.23 in 10.0 mi SSW 3.5 mph - N/A   Clear
3:35 AM 26.6 °F 21.2 °F 19.4 °F 74% 30.23 in 10.0 mi SSW 4.6 mph - N/A   Clear
3:55 AM 26.6 °F 22.6 °F 19.4 °F 74% 30.23 in 10.0 mi SSW 3.5 mph - N/A   Clear
4:15 AM 26.6 °F 21.2 °F 19.4 °F 74% 30.23 in 10.0 mi SSW 4.6 mph - N/A   Clear
4:25 AM 26.6 °F 20.0 °F 19.4 °F 74% 30.22 in 10.0 mi SSW 5.8 mph - N/A   Clear
4:55 AM 26.6 °F 21.2 °F 19.4 °F 74% 30.23 in 10.0 mi SSW 4.6 mph - N/A   Clear
5:14 AM 26.6 °F 20.0 °F 19.4 °F 74% 30.23 in 10.0 mi SSW 5.8 mph - N/A   Clear
5:35 AM 26.6 °F 20.0 °F 19.4 °F 74% 30.23 in 10.0 mi SSW 5.8 mph - N/A   Clear
5:54 AM 26.6 °F 21.2 °F 19.4 °F 74% 30.23 in 10.0 mi SSW 4.6 mph - N/A   Clear
6:15 AM 28.4 °F 21.2 °F 19.4 °F 69% 30.22 in 10.0 mi South 6.9 mph - N/A   Clear
6:35 AM 28.4 °F 21.2 °F 19.4 °F 69% 30.22 in 10.0 mi South 6.9 mph - N/A   Clear
6:55 AM 28.4 °F 21.2 °F 19.4 °F 69% 30.22 in 10.0 mi South 6.9 mph - N/A   Clear
7:15 AM 28.4 °F 21.2 °F 19.4 °F 69% 30.22 in 10.0 mi South 6.9 mph - N/A   Clear
7:35 AM 28.4 °F 21.2 °F 19.4 °F 69% 30.22 in 10.0 mi South 6.9 mph - N/A   Clear
7:55 AM 30.2 °F 23.4 °F 19.4 °F 64% 30.22 in 10.0 mi South 6.9 mph - N/A   Clear
8:15 AM 30.2 °F 23.4 °F 19.4 °F 64% 30.22 in 10.0 mi SSW 6.9 mph - N/A   Clear
8:35 AM 30.2 °F 21.9 °F 19.4 °F 64% 30.21 in 10.0 mi SSW 9.2 mph - N/A   Clear
8:55 AM 32.0 °F 23.0 °F 19.4 °F 60% 30.21 in 10.0 mi SSW 11.5 mph 17.3 mph N/A   Clear
9:15 AM 32.0 °F 23.6 °F 19.4 °F 60% 30.21 in 10.0 mi SSW 10.4 mph - N/A   Clear
9:35 AM 33.8 °F 24.8 °F 19.4 °F 56% 30.20 in 10.0 mi SSW 12.7 mph 19.6 mph N/A   Clear
9:55 AM 35.6 °F 27.5 °F 17.6 °F 48% 30.19 in 10.0 mi SSW 11.5 mph 21.9 mph N/A   Clear
10:15 AM 37.4 °F 29.3 °F 17.6 °F 45% 30.20 in 10.0 mi SSW 12.7 mph 20.7 mph N/A   Clear
10:35 AM 39.2 °F 31.2 °F 17.6 °F 42% 30.19 in 10.0 mi SSW 13.8 mph 20.7 mph N/A   Clear
10:55 AM 41.0 °F 33.1 °F 15.8 °F 36% 30.19 in 10.0 mi SSW 15.0 mph 24.2 mph N/A   Clear
11:15 AM 41.0 °F 33.9 °F 15.8 °F 36% 30.18 in 10.0 mi SSW 12.7 mph 23.0 mph N/A   Clear
11:35 AM 42.8 °F 35.1 °F 14.0 °F 31% 30.17 in 10.0 mi SW 16.1 mph 21.9 mph N/A   Clear
11:55 AM 44.6 °F 38.1 °F 14.0 °F 29% 30.16 in 10.0 mi SSW 13.8 mph 23.0 mph N/A   Scattered Clouds
12:15 PM 44.6 °F 38.1 °F 14.0 °F 29% 30.15 in 10.0 mi SSW 13.8 mph 24.2 mph N/A   Clear
12:34 PM 44.6 °F 37.8 °F 15.8 °F 31% 30.14 in 10.0 mi South 15.0 mph 25.3 mph N/A   Clear
12:55 PM 44.6 °F 37.8 °F 14.0 °F 29% 30.13 in 10.0 mi SSW 15.0 mph 26.5 mph N/A   Clear
1:15 PM 46.4 °F 40.1 °F 14.0 °F 27% 30.11 in 10.0 mi SSW 15.0 mph 24.2 mph N/A   Clear
1:34 PM 46.4 °F 39.2 °F 14.0 °F 27% 30.11 in 10.0 mi SSW 18.4 mph 25.3 mph N/A   Clear
1:55 PM 46.4 °F 38.5 °F 12.2 °F 25% 30.10 in 10.0 mi South 21.9 mph 29.9 mph N/A   Clear
2:15 PM 44.6 °F 36.4 °F 12.2 °F 27% 30.08 in 10.0 mi SSW 20.7 mph 29.9 mph N/A   Clear
2:35 PM 44.6 °F 37.2 °F 12.2 °F 27% 30.07 in 10.0 mi SSW 17.3 mph 25.3 mph N/A   Clear
2:55 PM 44.6 °F 36.6 °F 12.2 °F 27% 30.06 in 10.0 mi South 19.6 mph 28.8 mph N/A   Clear
3:15 PM 46.4 °F 39.5 °F 14.0 °F 27% 30.05 in 10.0 mi SSW 17.3 mph 28.8 mph N/A   Clear
3:55 PM 44.6 °F 38.1 °F 14.0 °F 29% 30.03 in 10.0 mi South 13.8 mph 25.3 mph N/A   Clear
4:15 PM 44.6 °F 38.4 °F 14.0 °F 29% 30.03 in 10.0 mi South 12.7 mph 24.2 mph N/A   Clear
4:35 PM 42.8 °F 35.4 °F 14.0 °F 31% 30.02 in 10.0 mi South 15.0 mph 23.0 mph N/A   Clear
4:54 PM 42.8 °F 34.5 °F 14.0 °F 31% 30.02 in 10.0 mi South 18.4 mph 25.3 mph N/A   Clear
5:15 PM 42.8 °F 35.1 °F 15.8 °F 34% 30.01 in 10.0 mi South 16.1 mph 28.8 mph N/A   Scattered Clouds
5:55 PM 42.8 °F 35.1 °F 17.6 °F 36% 30.00 in 10.0 mi South 16.1 mph 23.0 mph N/A   Mostly Cloudy
6:15 PM 42.8 °F 35.1 °F 17.6 °F 36% 30.01 in 10.0 mi South 16.1 mph 28.8 mph N/A   Overcast
6:34 PM 42.8 °F 34.8 °F 17.6 °F 36% 30.01 in 10.0 mi South 17.3 mph 29.9 mph N/A   Overcast
6:55 PM 42.8 °F 34.5 °F 17.6 °F 36% 30.01 in 10.0 mi South 18.4 mph 31.1 mph N/A   Scattered Clouds
7:15 PM 41.0 °F 32.5 °F 17.6 °F 39% 30.00 in 10.0 mi South 17.3 mph 24.2 mph N/A   Clear
7:35 PM 41.0 °F 31.9 °F 17.6 °F 39% 29.99 in 10.0 mi South 19.6 mph 27.6 mph N/A   Clear
7:55 PM 41.0 °F 31.9 °F 17.6 °F 39% 29.98 in 10.0 mi South 19.6 mph 29.9 mph N/A   Scattered Clouds
8:15 PM 42.8 °F 34.8 °F 17.6 °F 36% 29.98 in 10.0 mi South 17.3 mph 27.6 mph N/A   Scattered Clouds
8:35 PM 42.8 °F 34.8 °F 17.6 °F 36% 29.98 in 10.0 mi South 17.3 mph 28.8 mph N/A   Mostly Cloudy
8:55 PM 42.8 °F 35.8 °F 17.6 °F 36% 29.98 in 10.0 mi South 13.8 mph 23.0 mph N/A   Mostly Cloudy
9:15 PM 42.8 °F 35.1 °F 17.6 °F 36% 29.99 in 10.0 mi SSW 16.1 mph 21.9 mph N/A   Mostly Cloudy
9:55 PM 41.0 °F 34.3 °F 17.6 °F 39% 30.00 in 10.0 mi SSW 11.5 mph 19.6 mph N/A   Mostly Cloudy
10:14 PM 41.0 °F 34.3 °F 19.4 °F 42% 30.00 in 10.0 mi SSW 11.5 mph 17.3 mph N/A   Mostly Cloudy
10:35 PM 41.0 °F 34.7 °F 19.4 °F 42% 30.00 in 10.0 mi SSW 10.4 mph 16.1 mph N/A   Mostly Cloudy
10:55 PM 41.0 °F 34.7 °F 19.4 °F 42% 30.00 in 10.0 mi SSW 10.4 mph 17.3 mph N/A   Scattered Clouds
11:14 PM 41.0 °F 34.7 °F 19.4 °F 42% 30.00 in 10.0 mi SSW 10.4 mph 17.3 mph N/A   Clear
11:35 PM 41.0 °F 34.3 °F 19.4 °F 42% 30.00 in 10.0 mi SSW 11.5 mph 17.3 mph N/A   Scattered Clouds
11:54 PM 41.0 °F 35.2 °F 19.4 °F 42% 29.99 in 10.0 mi South 9.2 mph - N/A   Scattered Clouds